Tracking 32427 objects as of 11-Dec-2025
HD Live streaming from Space Station
objects crossing your sky now

STARLINK-2604

Track STARLINK-2604 now!
10-day predictions
STARLINK-2604 is classified as:


NORAD ID: 48374
Int'l Code: 2021-038X
Perigee: 553.4 km
Apogee: 555.1 km
Inclination: 53.1 °
Period: 95.6 minutes
Semi major axis: 6925 km
RCS: Unknown
Launch date: May 4, 2021
Source: United States (US)
Launch site: AIR FORCE EASTERN TEST RANGE (AFETR)
Your satellite tracking list
Your tracking list is empty




NASA's NSSDC Master Catalog

Two Line Element Set (TLE):
1 48374U 21038X   25344.41449100  .00015415  00000-0  10509-2 0  9994
2 48374  53.0548  32.7389 0001248  90.3358 269.7774 15.06421564253701
Source of the keplerian elements: AFSPC